When you browse on this site, cookies collect data to enhance your experience and personalize the content and advertising you see.
Visit our Privacy Policy to learn more. By continuing to use the site, you agree to this use of cookies and data.
  • In Hungary
  • List of Countries
  • For 7 days
  • Water Temperature
  • Satellite Maps
  • Weather Map
  • News
  • Weather Widgets
  • user-avatar
    Login

    Hourly Weather Ratno

    Today, 23 April, Tuesday

    Time Temperature Precipitation Wind Pressure Humidity
    00:00 +8°C° 0 mm 3 mps 756 mmHg 61%
    01:00 +7°C° 0 mm 3 mps 756 mmHg 62%
    02:00 +7°C° 0 mm 3 mps 756 mmHg 63%
    03:00 +7°C° 0 mm 3 mps 756 mmHg 64%
    04:00 +7°C° 0 mm 3 mps 756 mmHg 65%
    05:00 +5°C° 0 mm 4 mps 756 mmHg 66%
    06:00 +7°C° 0 mm 4 mps 756 mmHg 62%
    07:00 +9°C° 0 mm 5 mps 756 mmHg 59%
    08:00 +12°C° 0 mm 5 mps 756 mmHg 54%
    09:00 +13°C° 0 mm 6 mps 756 mmHg 48%
    10:00 +15°C° 0 mm 7 mps 756 mmHg 42%
    11:00 +16°C° 0 mm 8 mps 756 mmHg 36%
    12:00 +17°C° 0 mm 8 mps 756 mmHg 36%
    13:00 +17°C° 0 mm 8 mps 756 mmHg 35%
    14:00 +18°C° 0 mm 7 mps 755 mmHg 34%
    15:00 +18°C° 0 mm 7 mps 755 mmHg 36%
    16:00 +17°C° 0 mm 7 mps 754 mmHg 38%
    17:00 +17°C° 0 mm 6 mps 754 mmHg 40%
    18:00 +15°C° 0 mm 6 mps 754 mmHg 43%
    19:00 +14°C° 0 mm 5 mps 754 mmHg 47%
    20:00 +12°C° 0 mm 5 mps 754 mmHg 51%
    21:00 +12°C° 0 mm 5 mps 754 mmHg 51%
    22:00 +10°C° 0 mm 5 mps 754 mmHg 52%
    23:00 +10°C° 0 mm 5 mps 754 mmHg 53%

    Tomorrow, 24 April, Wednesday

    Time Temperature Precipitation Wind Pressure Humidity
    00:00 +9°C° 0 mm 5 mps 754 mmHg 53%
    01:00 +9°C° 0 mm 5 mps 754 mmHg 54%
    02:00 +9°C° 0 mm 5 mps 754 mmHg 55%
    03:00 +8°C° 0 mm 5 mps 754 mmHg 56%
    04:00 +8°C° 0 mm 5 mps 754 mmHg 58%
    05:00 +8°C° 0 mm 5 mps 754 mmHg 59%
    06:00 +9°C° 0 mm 6 mps 754 mmHg 55%
    07:00 +10°C° 0 mm 8 mps 754 mmHg 51%
    08:00 +11°C° 0 mm 9 mps 754 mmHg 47%
    09:00 +13°C° 0 mm 9 mps 754 mmHg 44%
    10:00 +15°C° 0 mm 9 mps 754 mmHg 41%
    11:00 +16°C° 0 mm 9 mps 754 mmHg 37%
    12:00 +17°C° 0 mm 9 mps 754 mmHg 37%
    13:00 +18°C° 0 mm 9 mps 754 mmHg 36%
    14:00 +18°C° 0 mm 9 mps 754 mmHg 36%
    15:00 +18°C° 0 mm 8 mps 753 mmHg 39%
    16:00 +18°C° 0 mm 8 mps 753 mmHg 41%
    17:00 +17°C° 0 mm 7 mps 753 mmHg 44%
    18:00 +16°C° 0 mm 7 mps 753 mmHg 48%
    19:00 +15°C° 0 mm 6 mps 753 mmHg 51%
    20:00 +13°C° 0 mm 5 mps 753 mmHg 55%
    21:00 +13°C° 0 mm 5 mps 753 mmHg 56%
    22:00 +12°C° 0 mm 5 mps 753 mmHg 57%
    23:00 +12°C° 0 mm 5 mps 753 mmHg 58%

    Day after tomorrow, 25 April, Thursday

    Time Temperature Precipitation Wind Pressure Humidity
    00:00 +10°C° 0 mm 5 mps 753 mmHg 59%
    01:00 +10°C° 0 mm 5 mps 753 mmHg 60%
    02:00 +10°C° 0 mm 5 mps 753 mmHg 61%
    03:00 +10°C° 0 mm 5 mps 752 mmHg 62%
    04:00 +9°C° 0 mm 5 mps 752 mmHg 63%
    05:00 +9°C° 0 mm 5 mps 752 mmHg 64%
    06:00 +10°C° 0 mm 5 mps 752 mmHg 63%
    07:00 +11°C° 0 mm 6 mps 752 mmHg 62%
    08:00 +13°C° 0 mm 6 mps 752 mmHg 61%
    09:00 +14°C° 0 mm 6 mps 752 mmHg 58%
    10:00 +16°C° 0 mm 6 mps 752 mmHg 55%
    11:00 +19°C° 0 mm 6 mps 752 mmHg 52%
    12:00 +20°C° 0 mm 6 mps 752 mmHg 51%
    13:00 +20°C° 0 mm 6 mps 752 mmHg 49%
    14:00 +21°C° 0 mm 6 mps 751 mmHg 48%
    15:00 +21°C° 0 mm 6 mps 751 mmHg 49%
    16:00 +21°C° 0 mm 6 mps 751 mmHg 50%
    17:00 +21°C° 0 mm 6 mps 750 mmHg 51%
    18:00 +20°C° 0 mm 5 mps 750 mmHg 56%
    19:00 +17°C° 0 mm 5 mps 750 mmHg 61%
    20:00 +15°C° 0 mm 4 mps 750 mmHg 67%
    21:00 +15°C° 0.2 mm 4 mps 750 mmHg 71%
    22:00 +14°C° 0.2 mm 4 mps 750 mmHg 76%
    23:00 +13°C° 0.2 mm 4 mps 750 mmHg 80%

    26 April, Friday

    Time Temperature Precipitation Wind Pressure Humidity
    00:00 +12°C° 0.3 mm 4 mps 750 mmHg 83%
    01:00 +12°C° 0.3 mm 4 mps 750 mmHg 86%
    02:00 +11°C° 0.3 mm 4 mps 749 mmHg 90%
    03:00 +11°C° 0.4 mm 3 mps 749 mmHg 91%
    04:00 +11°C° 0.4 mm 3 mps 749 mmHg 92%
    05:00 +11°C° 0.4 mm 3 mps 749 mmHg 93%
    06:00 +12°C° 0 mm 4 mps 749 mmHg 88%
    07:00 +14°C° 0 mm 4 mps 749 mmHg 84%
    08:00 +15°C° 0 mm 4 mps 748 mmHg 80%
    09:00 +17°C° 0 mm 5 mps 748 mmHg 74%
    10:00 +20°C° 0 mm 5 mps 748 mmHg 68%
    11:00 +22°C° 0 mm 5 mps 748 mmHg 62%
    12:00 +23°C° 0.8 mm 5 mps 748 mmHg 60%
    13:00 +23°C° 0.8 mm 5 mps 747 mmHg 57%
    14:00 +25°C° 0.8 mm 5 mps 747 mmHg 55%
    15:00 +23°C° 1 mm 5 mps 746 mmHg 59%
    16:00 +23°C° 1 mm 5 mps 746 mmHg 63%
    17:00 +22°C° 1 mm 4 mps 746 mmHg 67%
    18:00 +21°C° 0.1 mm 4 mps 745 mmHg 70%
    19:00 +20°C° 0.1 mm 4 mps 745 mmHg 74%
    20:00 +19°C° 0.1 mm 4 mps 745 mmHg 78%
    21:00 +18°C° 0.1 mm 4 mps 745 mmHg 81%
    22:00 +17°C° 0.1 mm 4 mps 745 mmHg 85%
    23:00 +15°C° 0.1 mm 4 mps 745 mmHg 88%

    27 April, Saturday

    Time Temperature Precipitation Wind Pressure Humidity
    00:00 +16°C° 0 mm 3 mps 744 mmHg 90%
    01:00 +14°C° 0 mm 3 mps 744 mmHg 91%
    02:00 +14°C° 0 mm 3 mps 744 mmHg 93%
    03:00 +14°C° 0.2 mm 3 mps 744 mmHg 93%
    04:00 +14°C° 0.2 mm 3 mps 744 mmHg 94%
    05:00 +13°C° 0.2 mm 3 mps 744 mmHg 94%
    06:00 +16°C° 0.4 mm 3 mps 743 mmHg 89%
    07:00 +17°C° 0.4 mm 3 mps 743 mmHg 85%
    08:00 +18°C° 0.4 mm 3 mps 743 mmHg 80%
    09:00 +20°C° 0 mm 4 mps 744 mmHg 72%
    10:00 +22°C° 0 mm 4 mps 744 mmHg 64%
    11:00 +25°C° 0 mm 4 mps 744 mmHg 56%
    12:00 +25°C° 0 mm 5 mps 744 mmHg 54%
    13:00 +25°C° 0 mm 5 mps 744 mmHg 52%
    14:00 +24°C° 0 mm 6 mps 744 mmHg 49%
    15:00 +25°C° 0 mm 5 mps 743 mmHg 52%
    16:00 +23°C° 0 mm 4 mps 743 mmHg 54%
    17:00 +23°C° 0 mm 4 mps 743 mmHg 57%
    18:00 +21°C° 0.9 mm 3 mps 743 mmHg 66%
    19:00 +19°C° 0.9 mm 3 mps 744 mmHg 75%
    20:00 +17°C° 0.9 mm 2 mps 744 mmHg 84%
    21:00 +17°C° 2.1 mm 2 mps 744 mmHg 86%
    22:00 +16°C° 2.1 mm 2 mps 745 mmHg 88%
    23:00 +16°C° 2.1 mm 2 mps 745 mmHg 90%

    28 April, Sunday

    Time Temperature Precipitation Wind Pressure Humidity
    00:00 +14°C° 0.1 mm 3 mps 745 mmHg 89%
    01:00 +13°C° 0.1 mm 3 mps 745 mmHg 88%
    02:00 +13°C° 0.1 mm 4 mps 745 mmHg 87%
    03:00 +12°C° 0 mm 4 mps 745 mmHg 87%
    04:00 +11°C° 0 mm 3 mps 746 mmHg 87%
    05:00 +11°C° 0 mm 3 mps 746 mmHg 87%
    06:00 +11°C° 0 mm 3 mps 747 mmHg 86%
    07:00 +11°C° 0 mm 3 mps 747 mmHg 85%
    08:00 +11°C° 0 mm 3 mps 747 mmHg 84%
    09:00 +12°C° 0 mm 3 mps 748 mmHg 78%
    10:00 +13°C° 0 mm 3 mps 748 mmHg 72%
    11:00 +15°C° 0 mm 4 mps 748 mmHg 66%
    12:00 +17°C° 0 mm 4 mps 748 mmHg 62%
    13:00 +18°C° 0 mm 4 mps 748 mmHg 58%
    14:00 +19°C° 0 mm 4 mps 748 mmHg 54%
    15:00 +19°C° 0 mm 4 mps 748 mmHg 56%
    16:00 +19°C° 0 mm 4 mps 748 mmHg 58%
    17:00 +19°C° 0 mm 3 mps 748 mmHg 60%
    18:00 +17°C° 0 mm 3 mps 748 mmHg 65%
    19:00 +16°C° 0 mm 3 mps 748 mmHg 71%
    20:00 +14°C° 0 mm 2 mps 749 mmHg 77%
    21:00 +13°C° 0 mm 2 mps 749 mmHg 79%
    22:00 +13°C° 0 mm 2 mps 749 mmHg 82%
    23:00 +12°C° 0 mm 2 mps 749 mmHg 84%
    Show more